Weather History for KANJ - June, 2014

Change the Weather History Date:

Tuesday, June 17, 2014

  Actual Average Record
Temperature  
Mean Temperature 62 °F 60 °F  
Max Temperature 70 °F 72 °F 92 °F (1919)
Min Temperature 54 °F 49 °F 33 °F (1972)
Degree Days  
Heating Degree Days 3 6  
Month to date heating degree days 91 124  
Since 1 June heating degree days 91 124  
Since 1 July heating degree days 9708 8607  
Cooling Degree Days 0 1  
Month to date cooling degree days 5 10  
Year to date cooling degree days 7 15  
Since 1 June cooling degree days 5 10  
Growing Degree Days 12 (Base 50)    
Moisture  
Dew Point 58 °F    
Average Humidity 82    
Maximum Humidity 97    
Minimum Humidity 67    
Precipitation  
Precipitation 0.46 in 0.09 in 1.46 in (1975)
Month to date precipitation 1.21 1.54  
Year to date precipitation 13.25 11.98  
Sea Level Pressure  
Sea Level Pressure 29.81 in    
Wind  
Wind Speed 7 mph (NE)    
Max Wind Speed 16 mph    
Max Gust Speed 22 mph    
Visibility 6 miles    
Events Rain    
T = Trace of Precipitation, MM = Missing Value Source: NWS Daily Summary

Daily Weather History Graph

Daily Weather History Graph

Search for Another Location

Airport or City:

Trip Planner

Search our weather history database for the weather conditions in past years. The results will help you decide how hot, cold, wet, or windy it might be!

Date:

Astronomy

Jun. 17, 2014 Rise Set
Actual Time 5:44 AM EDT 9:32 PM EDT
Civil Twilight 5:04 AM EDT 10:12 PM EDT
Nautical Twilight 4:11 AM EDT 11:05 PM EDT
Astronomical Twilight 2:55 AM EDT 12:21 AM EDT
Moon 12:08 AM EDT (6/17) 11:13 AM EDT (6/17)
Length of Visible Light 17h 07m
Length of Day
15h 48m
Waning Gibbous, 73% of the Moon is Illuminated
Jun 17
Waning Gibbous
Jun 19
Last Quarter
Jun 27
New
Jul 5
First Quarter
Jul 12
Full

Hourly Weather History & Observations

Time (EDT) Temp. Dew Point Humidity Pressure Visibility Wind Dir Wind Speed Gust Speed Precip Events Conditions
12:55 AM 62.1 °F 52.0 °F 70% 29.91 in 10.0 mi East 3.5 mph - N/A   Clear
1:55 AM 61.0 °F 52.0 °F 72% 29.90 in 10.0 mi Calm Calm - N/A   Clear
2:55 AM 60.1 °F 52.0 °F 75% 29.88 in 10.0 mi East 3.5 mph - N/A   Clear
3:55 AM 60.1 °F 53.1 °F 78% 29.88 in 10.0 mi East 3.5 mph - N/A   Clear
4:55 AM 57.9 °F 54.0 °F 87% 29.87 in 10.0 mi East 4.6 mph - N/A   Partly Cloudy
5:55 AM 59.0 °F 54.0 °F 83% 29.85 in 10.0 mi East 3.5 mph - N/A   Clear
6:55 AM 59.0 °F 55.0 °F 87% 29.85 in 10.0 mi Variable 3.5 mph - N/A   Mostly Cloudy
7:55 AM 59.0 °F 55.9 °F 90% 29.85 in 4.0 mi ENE 5.8 mph - 0.05 in Rain Light Rain
8:55 AM 59.0 °F 57.0 °F 93% 29.82 in 3.0 mi East 8.1 mph - 0.05 in Rain Light Rain
9:05 AM 59.0 °F 57.9 °F 96% 29.82 in 1.8 mi ENE 6.9 mph - 0.03 in Rain Heavy Rain
9:15 AM 59.0 °F 57.0 °F 93% 29.81 in 1.8 mi ENE 6.9 mph - 0.07 in Rain Rain
9:32 AM 59.0 °F 57.9 °F 96% 29.79 in 2.0 mi East 5.8 mph - 0.10 in Rain Light Rain
9:42 AM 59.0 °F 57.9 °F 96% 29.79 in 2.5 mi East 8.1 mph - 0.11 in Rain Light Rain
9:55 AM 60.1 °F 57.9 °F 93% 29.78 in 2.5 mi East 4.6 mph - 0.13 in Rain Rain
10:07 AM 60.1 °F 59.0 °F 96% 29.78 in 1.8 mi East 4.6 mph - 0.04 in Rain Rain
10:18 AM 60.1 °F 59.0 °F 96% 29.78 in 2.0 mi East 4.6 mph - 0.07 in Rain Light Rain
10:29 AM 61.0 °F 59.0 °F 93% 29.78 in 2.0 mi East 6.9 mph - 0.08 in Rain Light Rain
10:42 AM 61.0 °F 59.0 °F 93% 29.77 in 1.8 mi East 5.8 mph - 0.10 in Rain Light Rain
10:55 AM 61.0 °F 59.0 °F 93% 29.75 in 1.5 mi ESE 6.9 mph - 0.12 in Rain Light Rain
11:16 AM 61.0 °F 59.0 °F 93% 29.75 in 1.8 mi ESE 6.9 mph - 0.04 in Rain Light Rain
11:23 AM 61.0 °F 59.0 °F 93% 29.74 in 2.0 mi East 8.1 mph - 0.05 in Rain Light Rain
11:30 AM 61.0 °F 59.0 °F 93% 29.74 in 1.8 mi ESE 9.2 mph - 0.06 in Rain Light Rain
11:41 AM 61.0 °F 59.0 °F 93% 29.74 in 2.5 mi ESE 6.9 mph - 0.06 in Rain Light Rain
11:55 AM 61.0 °F 59.0 °F 93% 29.73 in 4.0 mi East 11.5 mph 17.3 mph 0.07 in Rain Light Rain
12:55 PM 61.0 °F 59.0 °F 93% 29.73 in 2.0 mi East 5.8 mph - 0.01 in Rain Light Rain
1:09 PM 62.1 °F 60.1 °F 93% 29.74 in 1.2 mi ENE 4.6 mph - 0.01 in Rain Light Rain
1:33 PM 63.0 °F 60.1 °F 90% 29.73 in 3.0 mi Variable 3.5 mph - 0.03 in Rain Light Rain
1:53 PM 62.6 °F 60.8 °F 94% 29.73 in 2.0 mi ENE 3.5 mph - 0.03 in Rain Light Rain
1:55 PM 63.0 °F 61.0 °F 93% 29.73 in 2.0 mi Calm Calm - 0.03 in Rain Light Rain
2:00 PM 63.0 °F 61.0 °F 93% 29.74 in 3.0 mi ENE 4.6 mph - 0.00 in Rain Light Rain
2:43 PM 66.0 °F 61.0 °F 84% 29.76 in 9.0 mi NE 3.5 mph - 0.00 in   Overcast
2:55 PM 64.9 °F 62.1 °F 90% 29.75 in 4.0 mi NNW 3.5 mph - 0.00 in   Overcast
3:21 PM 66.0 °F 62.1 °F 87% 29.75 in 10.0 mi WNW 4.6 mph - N/A   Overcast
3:51 PM 64.4 °F 62.6 °F 94% 29.76 in 2.5 mi West 5.8 mph - 0.00 in Rain Light Rain
3:55 PM 64.9 °F 63.0 °F 93% 29.76 in 3.0 mi WNW 6.9 mph - 0.00 in   Overcast
4:22 PM 68.0 °F 62.1 °F 81% 29.78 in 10.0 mi NW 10.4 mph - N/A   Overcast
4:55 PM 69.1 °F 62.1 °F 78% 29.78 in 10.0 mi WNW 8.1 mph - N/A   Mostly Cloudy
5:52 PM 68.0 °F 60.8 °F 78% 29.81 in 10.0 mi NW 15.0 mph 20.7 mph N/A   Scattered Clouds
5:55 PM 68.0 °F 61.0 °F 78% 29.81 in 10.0 mi NW 13.8 mph 20.7 mph N/A   Partly Cloudy
6:55 PM 66.9 °F 57.0 °F 70% 29.84 in 10.0 mi WNW 11.5 mph 20.7 mph N/A   Clear
7:55 PM 66.0 °F 57.9 °F 75% 29.86 in 10.0 mi NW 9.2 mph - N/A   Clear
8:55 PM 63.0 °F 57.0 °F 81% 29.87 in 10.0 mi NW 6.9 mph - N/A   Clear
9:55 PM 61.0 °F 57.0 °F 87% 29.88 in 10.0 mi WNW 4.6 mph - N/A   Clear
10:55 PM 59.0 °F 55.9 °F 90% 29.91 in 10.0 mi West 9.2 mph - N/A   Clear
11:23 PM 55.9 °F 54.0 °F 93% 29.93 in 10.0 mi WNW 11.5 mph - N/A   Scattered Clouds
11:34 PM 55.9 °F 54.0 °F 93% 29.94 in 10.0 mi WNW 10.4 mph - N/A   Mostly Cloudy
11:55 PM 55.9 °F 54.0 °F 93% 29.94 in 8.0 mi West 8.1 mph - N/A   Overcast